Weather History for KWMC - April, 2013

Change the Weather History Date:

Thursday, April 11, 2013

  Actual Average Record
Temperature  
Mean Temperature 48 °F 45 °F  
Max Temperature 61 °F 61 °F 83 °F (1988)
Min Temperature 34 °F 30 °F 10 °F (1953)
Degree Days  
Heating Degree Days 17 20  
Month to date heating degree days 184 226  
Since 1 July heating degree days 5660 5554  
Cooling Degree Days 0 0  
Month to date cooling degree days 0 0  
Year to date cooling degree days 0 0  
Moisture  
Dew Point 26 °F    
Average Humidity 56    
Maximum Humidity 93    
Minimum Humidity 19    
Precipitation  
Precipitation T in 0.03 in 0.38 in (1944)
Month to date precipitation 0.55 0.31  
Year to date precipitation 1.34 2.67  
Snow  
Snow 0.00 in 0.00 in 4.10 in (1967)
Month to date snowfall T 0.7  
Since 1 July snowfall 21.9 19.9  
Snow Depth 0.00 in    
Sea Level Pressure  
Sea Level Pressure 30.01 in    
Wind  
Wind Speed 6 mph (NW)    
Max Wind Speed 17 mph    
Max Gust Speed 21 mph    
Visibility 10 miles    
Events Rain    
T = Trace of Precipitation, MM = Missing Value Source: NWS Daily Summary

Daily Weather History Graph

Daily Weather History Graph

Search for Another Location

Airport or City:

Trip Planner

Search our weather history database for the weather conditions in past years. The results will help you decide how hot, cold, wet, or windy it might be!

Date:

Astronomy

Apr. 11, 2013 Rise Set
Actual Time 6:17 AM PDT 7:27 PM PDT
Civil Twilight 5:49 AM PDT 7:55 PM PDT
Nautical Twilight 5:16 AM PDT 8:29 PM PDT
Astronomical Twilight 4:40 AM PDT 9:04 PM PDT
Moon 6:51 AM PDT (4/11) 9:06 PM PDT (4/11)
Length of Visible Light 14h 05m
Length of Day
13h 09m
New Moon, 2% of the Moon is Illuminated
Apr 11
New Moon
Apr 18
First Quarter
Apr 25
Full
May 2
Last Quarter
May 9
New

Hourly Weather History & Observations

Time (PDT) Temp. Windchill Dew Point Humidity Pressure Visibility Wind Dir Wind Speed Gust Speed Precip Events Conditions
12:56 AM 46.9 °F - 44.1 °F 90% 30.01 in 10.0 mi NW 6.9 mph - 0.04 in Rain Light Rain
1:56 AM 43.0 °F 37.7 °F 37.0 °F 80% 30.01 in 10.0 mi WNW 9.2 mph - 0.00 in   Mostly Cloudy
2:56 AM 42.1 °F 37.7 °F 34.0 °F 73% 30.02 in 10.0 mi NNW 6.9 mph - N/A   Mostly Cloudy
3:56 AM 39.9 °F 34.5 °F 32.0 °F 73% 30.01 in 10.0 mi WNW 8.1 mph - N/A   Overcast
4:56 AM 37.9 °F 31.5 °F 30.9 °F 76% 30.02 in 10.0 mi WNW 9.2 mph - N/A   Scattered Clouds
5:56 AM 37.0 °F 30.4 °F 30.0 °F 76% 30.04 in 10.0 mi NNW 9.2 mph - N/A   Clear
6:56 AM 36.0 °F 31.1 °F 30.0 °F 79% 30.08 in 10.0 mi NW 5.8 mph - N/A   Clear
7:56 AM 42.1 °F 36.6 °F 30.0 °F 62% 30.07 in 10.0 mi North 9.2 mph - N/A   Clear
8:56 AM 45.0 °F 37.6 °F 26.1 °F 48% 30.06 in 10.0 mi North 17.3 mph - N/A   Clear
9:56 AM 48.0 °F - 30.0 °F 50% 30.06 in 10.0 mi NNE 8.1 mph - N/A   Clear
10:56 AM 48.9 °F - 26.1 °F 41% 30.07 in 10.0 mi Variable 3.5 mph - N/A   Clear
11:56 AM 52.0 °F - 28.9 °F 41% 30.06 in 10.0 mi SW 4.6 mph - N/A   Clear
12:56 PM 53.1 °F - 27.0 °F 37% 30.03 in 10.0 mi Calm Calm - N/A   Clear
1:56 PM 57.0 °F - 19.9 °F 24% 30.00 in 10.0 mi Variable 5.8 mph - N/A   Clear
2:56 PM 57.9 °F - 16.0 °F 19% 29.98 in 10.0 mi Variable 4.6 mph - N/A   Clear
3:56 PM 60.1 °F - 19.0 °F 20% 29.96 in 10.0 mi NW 6.9 mph - N/A   Clear
4:56 PM 59.0 °F - 19.9 °F 22% 29.95 in 10.0 mi WNW 6.9 mph - N/A   Clear
5:56 PM 57.9 °F - 16.0 °F 19% 29.96 in 10.0 mi West 10.4 mph - N/A   Clear
6:56 PM 55.9 °F - 17.1 °F 22% 29.96 in 10.0 mi WNW 4.6 mph - N/A   Clear
7:56 PM 48.9 °F - 25.0 °F 39% 29.96 in 10.0 mi SW 3.5 mph - N/A   Clear
8:56 PM 46.9 °F - 27.0 °F 46% 29.98 in 10.0 mi Calm Calm - N/A   Clear
9:56 PM 46.0 °F - 26.1 °F 46% 29.99 in 10.0 mi Calm Calm - N/A   Clear
10:56 PM 42.1 °F 38.4 °F 21.9 °F 45% 29.99 in 10.0 mi Variable 5.8 mph - N/A   Clear
11:56 PM 37.0 °F 34.5 °F 21.9 °F 54% 30.00 in 10.0 mi North 3.5 mph - N/A   Clear